Regional Weather Roundup
Issued by NWS

Home | Current Version | Previous Version | Graphics & Text | Print | Product List | Glossary On
Versions: 1 2 3 4 5 6 7 8 9 10 11 12 13 14 15 16 17 18 19 20 21 22 23 24 25 26 27 28 29 30 31 32 33 34 35 36 37 38 39 40 41 42 43 44 45 46 47 48 49 50
244
ASUS43 KDTX 131310
RWRMI
MICHIGAN HOURLY REGIONAL WEATHER ROUNDUP
NATIONAL WEATHER SERVICE DETROIT/PONTIAC MI
800 AM EST WED DEC 13 2017

NOTE: "FAIR" INDICATES FEW OR NO CLOUDS BELOW 12,000 FEET WITH NO
SIGNIFICANT WEATHER AND/OR OBSTRUCTION TO VISIBILITY.

MIZ047>049-052>055-059>063-066>070-074>076-081>083-131400-
SOUTHEAST LOWER MICHIGAN

CITY           SKY/WX    TMP DP  RH WIND       PRES   REMARKS
ADRIAN         CLOUDY    16  11  80 SW9       29.81F WCI   4
ALMA           LGT SNOW  17  15  88 S5        29.76S WCI  10
ANN ARBOR      CLOUDY    17  12  80 S7        29.79F WCI   8
BAD AXE        CLOUDY    13   7  76 CALM      29.78S
CARO           CLOUDY    13   8  79 CALM      29.78S
DETROIT CITY   CLOUDY    17   9  70 SW8       29.82F WCI   7
DETROIT        CLOUDY    18  11  74 S9        29.83F WCI   7
FLINT          LGT SNOW  16   9  74 S6        29.77F VSB 1   WCI   7
GROSSE ILE     CLOUDY    19  11  74 SW7       29.82F WCI   9
HILLSDALE      FLURRIES  18  10  73 S5        29.75F WCI  11
HOWELL         LGT SNOW  16  12  84 S5        29.76F WCI   9

CITY           SKY/WX    TMP DP  RH WIND       PRES   REMARKS
JACKSON        CLOUDY    17  11  77 S10       29.76F WCI   5
LAMBERTVILLE   CLOUDY    18  12  77 S5        29.82F WCI  11
LANSING        LGT SNOW  17  13  84 S10       29.76F FOG     WCI   5
LAPEER         CLOUDY    15  10  81 S3        29.78S
MASON          FLURRIES  18  11  75 S9        29.75F WCI   6
MONROE         CLOUDY    18  10  71 S5        29.82F WCI  11
MT. CLEMENS    MOCLDY    16  10  78 SW5       29.80S WCI   8
PONTIAC        CLOUDY    15   9  76 S3        29.77F
PORT HOPE        N/A     15   8  73 W6        29.77S WCI   6
PORT HURON     CLOUDY    10   5  79 CALM      29.81S
TRI CITIES     CLOUDY    16  12  84 S7        29.77F WCI   6
MIDLAND        LGT SNOW  17  12  82 SE3       29.76F
TROY           CLOUDY    17   9  71 SW3       29.82S
SAGINAW HB     CLOUDY    18  12  79 S3        29.77F
$$
MIZ043>046-050>051-056>058-064>065-071>073-077>080-131400-
SOUTHWEST LOWER MICHIGAN

CITY           SKY/WX    TMP DP  RH WIND       PRES   REMARKS
BATTLE CREEK   CLOUDY    18  11  74 S12       29.73F WCI   5
BENTON HARBOR  CLOUDY    21   8  57 S13       29.70F WCI   9
BIG RAPIDS     LGT SNOW  16  13  87 SE6       29.68F WCI   7
COLDWATER      CLOUDY    19  10  70 S6        29.76F WCI  10
FREMONT        LGT SNOW  18  16  93 SE8       29.67F WCI   7
HOLLAND        CLOUDY    19  13  77 S12       29.69F WCI   7
GRAND RAPIDS   LGT SNOW  19  16  88 SE10      29.70F FOG     WCI   7
IONIA          FLURRIES  18  13  83 S10       29.72F WCI   6
KALAMAZOO      FLURRIES  18  10  71 S9        29.73F WCI   7
LUDINGTON      LGT SNOW  18  15  86 SE10      29.64F WCI   7
MARSHALL       FLURRIES  17  10  77 S7        29.74F WCI   7
MOUNT PLEASANT LGT SNOW  17  12  80 S5        29.74S WCI  10
MUSKEGON       FLURRIES  20  14  77 SE13      29.67F WCI   7
SOUTH HAVEN    CLOUDY    22  10  58 S12       29.70F WCI  10
$$
MIZ016>042-131400-
NORTHERN LOWER MICHIGAN

CITY           SKY/WX    TMP DP  RH WIND       PRES   REMARKS
ALPENA         CLOUDY     8   5  87 CALM      29.77R
BEAVER ISLAND  LGT SNOW  17  13  88 E10       29.70F WCI   4
BELLAIRE       CLOUDY    13   9  84 CALM      29.72F
CADILLAC       LGT SNOW  14  11  87 SE7       29.64F WCI   4
CHARLEVOIX     CLOUDY    14   8  78 E9        29.73F WCI   2
FRANKFORT      LGT SNOW  18  15  85 SE8       29.65F WCI   8
GAYLORD        CLOUDY     8   2  76 SE6       29.68S WCI  -2
GRAYLING       CLOUDY    10   4  77 E6        29.70S WCI   0
HARBOR SPRINGS FLURRIES  10   5  79 E7        29.73S WCI  -1
HOUGHTON LAKE  CLOUDY    11   7  84 SE6       29.70S WCI   1
MANISTEE       LGT SNOW  17  14  88 SE8       29.65F FOG     WCI   7
OSCODA         CLOUDY     8   3  79 W3        29.77F
PELLSTON       CLOUDY    10   7  87 SE6       29.74S FOG     WCI   0
ROGERS CITY    LGT SNOW  12   6  77 CALM      29.77R
TRAVERSE CITY  LGT SNOW  16  11  80 SE5       29.68F WCI   9
$$
MIZ007>008-015-131400-
EASTERN UPPER MICHIGAN

CITY           SKY/WX    TMP DP  RH WIND       PRES   REMARKS
KINROSS        CLOUDY    -9 -13  83 E7        29.76S WCI -24
MACKINAC ISLAN FLURRIES  10   6  84 NE12      29.73S WCI  -5
NEWBERRY       CLOUDY     2   1  97 E6        29.70F WCI  -9
S. S. MARIE    CLOUDY    -6 -11  79 E5        29.76F WCI -17
MUNISING         N/A     11   7  84 S7        29.68F WCI   0
$$
MIZ004>006-011>014-085-131400-
CENTRAL UPPER MICHIGAN

CITY           SKY/WX    TMP DP  RH WIND       PRES   REMARKS
MANISTIQUE     CLOUDY    11   3  69 NE6       29.67F WCI   2
ESCANABA       LGT SNOW  18  14  86 NE8       29.65F FOG     WCI   7
MENOMINEE      LGT SNOW  19  17  92 SE12      29.61F FOG     WCI   7
SAWYER-GWINN   LGT SNOW  10   7  85 S6        29.63S WCI   1
$$
MIZ001>003-009>011-084-131400-
WESTERN UPPER MICHIGAN

CITY           SKY/WX    TMP DP  RH WIND       PRES   REMARKS
IRON MOUNTAIN  LGT SNOW  11   7  84 E7        29.55F VSB 1   WCI   0
HOUGHTON       LGT SNOW  15  10  80 SE15      29.58F WCI   0
COPPER HARBOR    N/A     19  10  68 S5        29.64F WCI  12
IRONWOOD       LGT SNOW  12  10  92 E8        29.48R VSB 1   WCI   1
$$

ABBREVIATIONS USED IN REMARKS
   TC - TEMPERATURE IN CELSIUS
  WCI - WIND CHILL INDEX
   HX - HEAT INDEX
  VSB - VISIBILITY





USA.gov is the U.S. government's official web portal to all federal, state and local government web resources and services.